Location: Brotuna
(46.2000°N, 22.6000°E)
Time: 12:58:36
(UTC+00:00)

USA 186 - Pass Details

Date: 09 April 2020
Orbit: 263 x 447 km, 96.9° (Epoch: 21 May)

Event Time Altitude Azimuth Distance (km) Brightness Sun altitude
Rises 17:59:25 0° 167° (SSE) 2,413 5.3 -9.1°
Reaches altitude 10° 18:01:28 10° 168° (SSE) 1,528 4.3 -9.4°
Maximum altitude 18:04:45 87° 254° (WSW) 423 1.7 -9.9°
Drops below altitude 10° 18:07:53 10° 347° (NNW) 1,454 5.0 -10.4°
Sets 18:09:48 0° 348° (NNW) 2,283 6.0 -10.8°
